Wind_Speed
28 29 30 29 29 30 32 32 33 31 30 29 31 31 31 31 30 30 30 30 30 31 31 31 31 31 32 33 34 35 35 35 35 36 37 37 38 39 39 40 40 41 41 40
29 29 30 30 30 30 31 32 32 31 30 28 29 30 32 32 31 31 31 31 31 31 31 32 32 33 34 34 34 35 35 36 36 36 37 38 38 38 39 39 40 40 40 40
30 30 31 31 29 30 31 31 31 30 29 28 27 28 29 30 31 31 32 32 32 32 33 33 34 34 35 35 35 35 35 35 35 36 37 39 39 39 39 39 39 40 40 40
30 31 32 31 30 30 30 30 30 29 28 28 29 29 29 30 31 31 31 33 34 34 34 34 35 36 36 36 36 36 36 36 35 36 37 37 38 38 38 38 38 38 39 39
29 30 31 30 29 29 29 29 29 29 29 29 30 30 29 30 31 32 32 33 33 34 34 34 35 36 36 37 37 37 37 37 36 37 37 37 36 37 37 37 37 38 38 38
27 28 29 27 28 28 29 30 29 29 29 30 30 31 30 30 31 32 32 33 33 33 33 33 34 35 35 35 36 36 37 36 36 36 36 36 35 35 36 36 36 37 37 37
26 27 26 25 26 26 28 29 29 29 30 31 31 31 31 31 31 32 32 32 32 33 32 32 32 33 33 33 34 34 34 35 35 35 35 34 35 35 35 35 35 35 36 36
25 26 25 24 26 26 27 28 29 29 30 31 31 32 32 31 31 31 32 32 31 32 32 32 32 33 33 33 33 33 34 34 34 34 34 34 34 34 34 34 34 33 34 35
26 25 25 25 26 27 28 28 28 29 29 30 30 31 32 32 32 31 31 31 31 31 32 32 32 33 33 33 33 33 33 34 34 34 34 34 34 34 33 33 33 33 34 34
26 24 24 25 25 27 28 28 28 28 29 30 30 30 30 30 29 29 30 30 31 31 31 32 33 33 33 33 34 34 34 34 34 34 33 34 34 33 32 32 32 33 33 34
27 25 25 25 26 27 28 28 29 29 29 30 30 30 29 29 28 29 29 29 30 30 30 31 31 32 32 33 33 33 34 34 33 33 33 32 31 31 31 31 32 32 32 32
27 26 28 27 27 28 28 29 29 30 30 30 30 30 29 28 28 28 28 28 28 29 29 30 30 30 30 31 32 32 33 33 32 31 31 30 30 29 29 29 30 30 31 31
28 28 28 27 27 28 28 29 30 29 29 29 29 28 28 28 27 28 28 28 28 29 29 29 29 29 30 30 30 30 30 30 29 29 29 29 29 28 28 28 29 29 29 30
27 28 27 27 27 27 28 28 29 28 28 28 27 27 27 27 27 27 28 28 28 28 28 28 28 28 28 28 28 28 27 27 27 27 27 27 27 26 27 27 28 28 28 29
26 27 27 27 27 28 28 29 29 28 27 27 27 26 27 27 27 27 27 28 28 27 27 26 26 26 26 26 26 25 25 25 25 25 24 24 24 24 25 25 26 27 27 27
26 26 26 27 27 28 28 28 27 26 26 26 26 26 26 26 26 26 27 27 26 26 25 25 25 25 25 24 24 23 23 23 24 23 23 23 23 23 23 24 24 24 25 25
25 25 25 25 26 26 26 26 26 25 25 24 24 24 24 25 25 25 25 25 24 24 24 24 23 23 23 22 22 22 22 22 22 22 22 22 22 22 22 22 22 22 23 23
22 23 23 24 25 25 25 25 25 25 24 24 23 23 23 24 24 24 23 23 22 22 21 21 21 21 21 21 21 21 20 20 20 20 20 20 20 20 20 21 21 21 21 22
21 21 22 24 24 24 24 24 23 23 23 23 22 22 22 22 22 22 22 21 20 20 20 20 19 19 19 19 19 19 19 18 19 19 19 19 19 19 19 19 20 20 20 20
20 21 22 23 23 23 23 22 22 22 22 22 21 21 21 20 20 20 20 20 19 19 19 19 18 18 18 18 17 17 17 17 17 18 18 18 18 18 18 18 19 19 19 20
19 20 21 21 20 20 21 21 21 21 21 20 20 19 19 19 19 20 19 19 19 19 19 18 17 17 17 17 17 17 17 17 17 17 18 17 17 18 18 18 19 19 20 20
18 18 19 18 18 18 19 19 20 19 19 19 19 19 19 18 18 19 19 18 18 18 18 18 18 17 17 17 17 16 16 16 16 17 16 16 17 17 17 17 18 18 18 19
17 17 16 16 17 17 17 18 18 18 18 18 18 18 18 17 17 17 17 17 17 18 18 18 18 18 18 18 17 16 16 16 15 15 15 15 15 15 15 15 16 17 17 17
15 15 15 15 16 16 16 16 16 16 16 16 16 16 16 16 16 16 16 16 17 17 17 17 17 17 17 17 17 16 15 14 14 14 14 14 15 15 15 16 16 16 17 17
14 15 14 15 15 15 15 15 15 15 15 14 14 14 14 14 14 14 15 16 16 16 15 15 15 15 15 15 14 14 14 14 14 14 14 14 15 15 15 15 16 16 16 16
14 14 15 15 15 14 14 14 14 14 14 13 13 13 14 13 13 14 14 14 15 15 14 13 13 13 12 12 13 13 13 13 13 13 13 14 14 14 14 15 15 16 16 16
14 14 14 15 15 14 14 14 14 14 13 13 12 13 13 14 14 13 13 13 13 13 13 12 11 11 11 11 12 13 13 13 13 13 13 13 13 13 14 14 14 15 15 15
Wind_Direction
268 268 268 268 268 267 266 267 268 269 269 267 267 266 265 264 261 260 259 258 258 259 259 260 262 263 265 266 267 268 267 268 269 268 268 267 267 266 265 264 263 263 262 261
268 268 268 268 268 269 269 269 268 269 269 268 266 265 264 262 260 260 259 258 258 258 259 261 263 265 267 268 269 269 269 269 268 268 268 268 268 266 266 265 264 262 262 261
269 269 268 268 269 268 268 268 269 270 269 268 266 265 264 262 259 259 259 259 258 258 260 261 264 266 268 269 269 269 268 268 268 269 270 270 268 267 266 265 264 263 262 262
271 270 269 271 270 269 268 267 267 267 267 268 267 266 266 265 263 262 261 260 261 262 262 264 266 267 268 269 268 268 268 268 269 269 270 270 269 266 266 265 264 263 261 261
273 272 272 271 272 270 268 266 266 267 267 268 268 268 268 268 268 267 265 264 262 263 264 267 268 268 267 267 267 267 268 269 268 269 269 269 268 267 266 265 264 263 262 261
273 274 274 274 272 270 269 267 267 268 269 270 271 271 271 270 269 270 269 268 266 265 265 267 268 268 267 266 266 267 268 268 268 269 269 268 267 267 267 266 265 264 263 263
274 275 276 275 274 272 271 271 270 270 271 272 273 273 273 272 272 271 270 269 269 268 267 267 269 270 268 267 267 267 267 268 267 268 268 268 268 268 269 268 266 265 263 262
275 276 277 276 273 273 275 273 272 272 273 274 275 274 273 273 273 271 270 269 269 269 268 269 270 271 270 268 267 268 268 269 269 268 268 269 270 270 269 268 266 265 263 263
275 279 279 278 277 276 276 277 277 276 277 277 276 276 274 273 273 273 271 268 268 269 270 269 269 270 269 268 268 268 268 269 269 269 269 270 271 271 269 267 265 264 264 265
275 277 277 277 278 278 278 279 279 279 279 279 278 276 275 274 273 273 272 269 268 269 269 269 269 269 268 267 267 268 269 268 267 267 269 270 271 270 268 266 265 264 265 266
274 275 275 276 278 278 279 280 282 281 280 279 277 276 275 273 273 273 272 270 269 269 269 269 269 268 268 267 267 268 268 267 267 267 267 269 269 268 268 266 265 265 265 265
275 276 275 276 276 278 280 282 283 282 281 280 277 276 273 272 273 272 271 271 270 270 270 270 269 268 267 267 268 268 268 267 267 267 266 265 266 266 266 266 266 266 264 264
276 276 276 276 277 280 282 284 284 283 280 278 276 275 273 272 272 272 272 272 271 271 270 270 269 269 268 269 269 269 267 266 265 265 265 265 265 265 265 266 266 265 264 264
276 275 274 275 277 281 283 284 284 282 279 277 275 274 273 272 271 271 271 271 272 273 272 272 271 270 270 269 269 268 266 265 265 265 266 266 267 267 267 267 267 266 265 265
274 275 274 275 277 280 283 284 283 281 278 276 275 275 275 273 272 272 272 273 273 273 273 273 272 271 271 270 269 267 265 265 266 266 266 267 268 269 269 269 268 267 265 264
273 274 275 276 276 279 281 282 281 280 278 277 276 276 277 276 274 273 272 272 272 271 270 272 272 272 271 269 269 268 266 265 265 266 267 268 269 270 271 271 270 268 266 265
273 274 276 278 278 280 281 281 281 280 280 279 277 276 276 276 275 273 272 272 271 269 270 272 272 272 270 269 268 268 266 265 265 266 267 268 269 270 270 271 271 270 269 268
276 276 278 280 281 282 282 282 281 279 278 278 277 276 276 275 274 273 273 273 272 271 271 271 272 271 270 269 267 267 266 265 265 265 266 268 270 271 271 270 270 270 270 271
278 279 281 283 283 281 282 283 281 278 276 276 275 275 277 278 277 274 272 272 271 270 269 269 271 271 269 268 269 268 266 265 265 265 266 268 270 270 270 271 271 271 272 273
282 282 284 285 285 283 283 283 282 278 277 276 276 276 277 277 276 273 271 270 270 269 269 269 269 269 268 268 270 269 267 265 264 264 266 267 269 270 270 271 271 273 274 275
285 286 287 288 287 285 284 285 285 281 279 278 277 276 277 277 275 271 269 268 268 268 268 268 269 268 267 267 268 269 267 265 266 266 266 266 267 268 269 271 273 274 276 276
288 289 290 290 289 289 288 288 287 285 281 279 276 276 278 277 274 270 267 267 267 267 266 265 267 267 267 268 268 269 267 266 266 267 266 266 267 268 270 272 275 277 278 277
293 292 293 292 292 291 290 290 289 288 285 282 279 278 279 277 273 269 267 268 269 268 266 265 266 266 267 267 267 266 265 266 266 267 266 266 267 268 270 273 276 277 278 277
296 295 293 294 295 295 294 291 290 289 287 284 281 280 279 276 273 270 267 266 267 268 269 267 265 265 265 263 262 261 262 263 265 266 266 266 268 270 273 275 277 278 278 277
296 297 297 296 298 298 295 293 292 292 289 285 283 282 280 278 275 271 268 268 269 270 270 267 264 264 263 260 256 255 257 260 264 266 267 269 270 272 274 277 279 280 280 277
295 298 299 299 300 300 296 295 296 295 291 287 285 283 282 280 278 274 272 271 269 269 268 265 262 261 260 255 252 253 256 259 263 266 268 269 270 273 275 278 281 283 281 278
293 296 300 303 303 302 301 300 299 297 294 290 285 282 283 282 280 275 272 270 267 265 263 260 259 258 256 255 254 255 256 259 264 268 270 271 274 277 279 281 284 285 283 281
Height
5602 5602 5602 5602 5603 5602 5601 5601 5600 5601 5601 5603 5601 5600 5600 5601 5601 5601 5602 5602 5602 5603 5603 5604 5605 5605 5606 5606 5606 5606 5607 5607 5607 5606 5606 5605 5605 5604 5604 5605 5605 5606 5607 5608
5594 5594 5593 5593 5594 5594 5593 5592 5591 5591 5592 5593 5592 5591 5591 5591 5592 5592 5593 5593 5593 5594 5594 5595 5595 5596 5596 5596 5596 5596 5597 5597 5596 5595 5595 5595 5594 5593 5593 5594 5594 5595 5596 5597
5585 5585 5583 5585 5587 5586 5584 5584 5583 5582 5584 5583 5583 5582 5581 5581 5582 5583 5583 5583 5584 5584 5585 5585 5585 5585 5586 5585 5585 5585 5585 5585 5585 5585 5584 5584 5583 5583 5583 5583 5583 5584 5585 5586
5575 5576 5574 5579 5577 5576 5575 5575 5575 5574 5574 5574 5573 5573 5573 5573 5572 5573 5573 5574 5574 5574 5575 5575 5575 5575 5575 5574 5574 5574 5574 5574 5574 5574 5573 5573 5572 5572 5572 5572 5573 5573 5574 5575
5565 5564 5565 5569 5568 5567 5565 5566 5567 5566 5566 5565 5564 5564 5565 5564 5563 5563 5563 5564 5564 5564 5564 5565 5564 5564 5563 5563 5563 5564 5563 5563 5563 5563 5562 5562 5562 5561 5561 5562 5562 5562 5563 5564
5557 5555 5556 5561 5559 5557 5557 5557 5559 5557 5556 5556 5555 5555 5557 5556 5555 5554 5553 5553 5553 5554 5554 5554 5554 5553 5553 5553 5553 5553 5553 5552 5552 5552 5552 5551 5551 5551 5551 5551 5551 5552 5552 5553
5549 5547 5548 5551 5549 5548 5549 5550 5549 5548 5547 5547 5546 5546 5546 5545 5545 5544 5544 5543 5543 5543 5543 5543 5543 5543 5543 5542 5542 5542 5542 5542 5542 5541 5541 5541 5541 5540 5540 5541 5541 5541 5542 5543
5542 5541 5544 5542 5540 5540 5539 5539 5538 5538 5538 5537 5537 5536 5535 5535 5535 5535 5534 5534 5534 5534 5534 5534 5533 5533 5533 5532 5532 5532 5532 5532 5532 5531 5531 5530 5530 5530 5530 5530 5530 5531 5531 5532
5536 5537 5535 5533 5532 5531 5530 5530 5529 5529 5529 5528 5527 5526 5526 5525 5525 5525 5525 5525 5525 5524 5524 5524 5524 5523 5523 5523 5523 5523 5522 5522 5522 5521 5521 5521 5520 5520 5520 5520 5520 5520 5521 5521
5527 5528 5527 5525 5524 5523 5522 5521 5520 5520 5519 5518 5517 5517 5516 5516 5515 5515 5515 5515 5515 5515 5515 5514 5514 5513 5513 5513 5513 5513 5513 5512 5512 5512 5511 5511 5510 5510 5510 5510 5510 5510 5511 5511
5519 5520 5518 5518 5516 5515 5513 5512 5512 5511 5510 5509 5508 5507 5507 5506 5506 5505 5505 5505 5505 5505 5504 5504 5504 5503 5503 5503 5503 5503 5502 5502 5502 5501 5501 5501 5500 5500 5500 5500 5499 5500 5500 5501
5511 5511 5509 5509 5508 5506 5505 5504 5503 5501 5501 5500 5499 5498 5497 5497 5497 5496 5496 5496 5496 5495 5495 5494 5494 5493 5493 5493 5492 5492 5492 5492 5492 5491 5491 5491 5491 5491 5490 5490 5490 5490 5490 5491
5502 5501 5500 5500 5499 5498 5496 5495 5494 5492 5491 5490 5489 5488 5488 5488 5487 5487 5487 5487 5486 5486 5486 5485 5484 5484 5484 5483 5483 5482 5482 5482 5482 5482 5482 5482 5481 5481 5481 5481 5480 5480 5481 5481
5493 5492 5491 5491 5490 5489 5488 5487 5485 5484 5482 5481 5481 5480 5479 5479 5479 5478 5478 5477 5477 5477 5476 5476 5475 5475 5474 5474 5474 5473 5473 5473 5473 5473 5473 5472 5472 5472 5472 5472 5472 5471 5471 5471
5485 5483 5483 5482 5482 5480 5479 5478 5477 5475 5474 5473 5472 5471 5471 5471 5470 5470 5469 5468 5468 5468 5467 5467 5467 5466 5465 5465 5465 5464 5464 5464 5464 5464 5464 5464 5463 5463 5463 5463 5463 5463 5462 5462
5476 5475 5474 5474 5473 5472 5470 5469 5468 5467 5465 5465 5464 5463 5462 5462 5461 5461 5460 5460 5459 5459 5459 5458 5458 5458 5457 5456 5456 5456 5456 5456 5456 5456 5456 5456 5456 5455 5455 5455 5454 5454 5454 5454
5467 5467 5466 5465 5464 5463 5462 5461 5459 5458 5457 5456 5456 5455 5454 5454 5453 5452 5452 5451 5451 5451 5451 5450 5450 5449 5449 5449 5448 5448 5448 5448 5448 5448 5448 5448 5448 5448 5447 5447 5447 5447 5447 5446
5459 5459 5458 5457 5456 5455 5454 5452 5451 5450 5449 5448 5448 5447 5446 5445 5445 5444 5444 5443 5443 5443 5443 5442 5442 5442 5441 5441 5441 5441 5441 5441 5441 5441 5441 5441 5441 5440 5440 5440 5440 5439 5439 5439
5452 5452 5451 5449 5448 5447 5445 5444 5443 5442 5441 5440 5439 5439 5438 5437 5437 5436 5436 5436 5436 5436 5435 5435 5434 5434 5434 5434 5434 5433 5433 5434 5434 5434 5434 5434 5434 5434 5433 5433 5433 5432 5432 5432
5445 5444 5443 5442 5440 5439 5438 5436 5435 5434 5433 5432 5431 5431 5430 5429 5429 5429 5428 5428 5428 5428 5428 5428 5428 5428 5428 5427 5427 5427 5427 5427 5427 5427 5427 5427 5427 5427 5427 5427 5426 5426 5425 5425
5438 5437 5436 5434 5433 5432 5430 5429 5427 5426 5425 5424 5424 5423 5423 5422 5422 5421 5421 5421 5421 5421 5421 5421 5421 5421 5421 5422 5421 5421 5421 5421 5421 5421 5421 5421 5421 5421 5421 5421 5420 5420 5419 5418
5432 5431 5429 5428 5426 5425 5423 5422 5420 5419 5418 5417 5416 5416 5415 5415 5414 5414 5414 5414 5415 5415 5415 5415 5415 5415 5415 5416 5415 5415 5415 5415 5415 5415 5415 5415 5415 5415 5415 5414 5414 5413 5412 5411
5426 5425 5423 5422 5421 5419 5417 5416 5414 5412 5411 5410 5409 5409 5408 5408 5407 5407 5408 5408 5408 5408 5408 5408 5408 5409 5409 5409 5409 5409 5410 5410 5409 5409 5409 5409 5409 5409 5409 5408 5408 5407 5406 5405
5421 5420 5418 5417 5415 5413 5412 5410 5408 5407 5405 5404 5403 5403 5402 5402 5401 5401 5401 5401 5401 5402 5402 5402 5402 5402 5402 5403 5403 5404 5404 5404 5404 5404 5404 5404 5404 5404 5403 5403 5402 5401 5400 5400
5416 5415 5413 5412 5410 5408 5406 5405 5403 5401 5400 5399 5398 5397 5396 5396 5396 5396 5395 5396 5396 5396 5396 5396 5396 5396 5396 5397 5397 5398 5399 5399 5399 5399 5399 5399 5399 5398 5398 5397 5396 5396 5395 5394
5412 5410 5408 5407 5405 5403 5401 5400 5398 5397 5395 5394 5393 5392 5392 5391 5391 5390 5390 5390 5390 5390 5390 5390 5391 5391 5391 5392 5393 5393 5394 5394 5394 5394 5394 5394 5394 5393 5393 5392 5391 5390 5389 5388
5407 5405 5404 5402 5400 5398 5396 5395 5393 5392 5390 5389 5389 5388 5387 5386 5386 5386 5386 5385 5385 5385 5385 5386 5386 5387 5387 5388 5388 5389 5389 5390 5390 5390 5389 5389 5389 5388 5388 5387 5386 5385 5383 5383